TimeCDT,TemperatureF,Dew PointF,Humidity,Sea Level PressureIn,VisibilityMPH,Wind Direction,Wind SpeedMPH,Gust SpeedMPH,PrecipitationIn,Events,Conditions,WindDirDegrees,DateUTC
12:53 AM,71.1,66.0,84,29.65,10.0,West,6.9,-,N/A,,Scattered Clouds,280,2013-07-05 05:53:00
1:53 AM,70.0,66.0,87,29.65,10.0,West,4.6,-,N/A,,Scattered Clouds,280,2013-07-05 06:53:00
2:53 AM,70.0,66.0,87,29.66,10.0,West,6.9,-,N/A,,Mostly Cloudy,270,2013-07-05 07:53:00
3:53 AM,68.0,64.9,90,29.67,10.0,SW,3.5,-,N/A,,Clear,230,2013-07-05 08:53:00
4:53 AM,66.0,64.0,93,29.66,10.0,West,5.8,-,N/A,,Clear,270,2013-07-05 09:53:00
5:53 AM,64.9,63.0,93,29.66,8.0,WNW,5.8,-,N/A,,Scattered Clouds,290,2013-07-05 10:53:00
6:53 AM,68.0,64.9,90,29.67,10.0,West,4.6,-,N/A,,Scattered Clouds,280,2013-07-05 11:53:00
7:53 AM,72.0,66.0,81,29.67,10.0,NW,10.4,-,N/A,,Partly Cloudy,320,2013-07-05 12:53:00
8:53 AM,73.9,66.0,76,29.69,10.0,NW,10.4,-,N/A,,Partly Cloudy,310,2013-07-05 13:53:00
9:53 AM,75.9,66.0,71,29.70,10.0,WNW,6.9,-,N/A,,Partly Cloudy,300,2013-07-05 14:53:00
10:53 AM,79.0,64.9,62,29.69,10.0,NW,10.4,-,N/A,,Scattered Clouds,320,2013-07-05 15:53:00
11:53 AM,82.0,64.0,54,29.69,10.0,NNW,11.5,-,N/A,,Scattered Clouds,340,2013-07-05 16:53:00
12:53 PM,84.0,64.0,51,29.69,10.0,NW,8.1,-,N/A,,Scattered Clouds,320,2013-07-05 17:53:00
1:53 PM,86.0,64.0,48,29.68,10.0,NW,4.6,-,N/A,,Scattered Clouds,320,2013-07-05 18:53:00
2:53 PM,87.1,61.0,41,29.68,10.0,NNE,3.5,-,N/A,,Mostly Cloudy,20,2013-07-05 19:53:00
3:53 PM,87.1,62.1,43,29.68,10.0,North,6.9,-,N/A,,Mostly Cloudy,350,2013-07-05 20:53:00
4:53 PM,87.1,61.0,41,29.68,10.0,Variable,3.5,-,N/A,,Mostly Cloudy,0,2013-07-05 21:53:00
5:53 PM,87.1,59.0,39,29.68,10.0,Variable,4.6,-,N/A,,Mostly Cloudy,0,2013-07-05 22:53:00
6:53 PM,84.9,63.0,48,29.68,10.0,NNW,3.5,-,N/A,,Scattered Clouds,330,2013-07-05 23:53:00
7:53 PM,82.9,62.1,49,29.68,10.0,NNE,6.9,-,N/A,,Scattered Clouds,30,2013-07-06 00:53:00
8:53 PM,80.1,61.0,52,29.68,10.0,ENE,6.9,-,N/A,,Scattered Clouds,60,2013-07-06 01:53:00
9:53 PM,78.1,61.0,56,29.70,10.0,NE,6.9,-,N/A,,Scattered Clouds,50,2013-07-06 02:53:00
10:53 PM,73.0,61.0,66,29.72,10.0,ENE,4.6,-,N/A,,Scattered Clouds,60,2013-07-06 03:53:00
11:53 PM,73.9,61.0,64,29.72,10.0,NE,8.1,-,N/A,,Clear,50,2013-07-06 04:53:00